Regional Weather Roundup
Issued by NWS

Home | Current Version | Previous Version | Text Only | Print | Product List | Glossary On
Versions: 1 2 3 4 5 6 7 8 9 10 11 12 13 14 15 16 17 18 19 20 21 22 23 24 25 26 27 28 29 30 31 32 33 34 35 36 37 38 39 40 41 42 43 44 45 46 47 48 49 50
000
ASUS43 KBIS 310110
RWRND

NORTH DAKOTA REGIONAL WEATHER ROUNDUP
NATIONAL WEATHER SERVICE BISMARCK ND
800 PM CDT TUE AUG 30 2016

NOTE: "FAIR" INDICATES FEW OR NO CLOUDS BELOW 12,000 FEET WITH NO
SIGNIFICANT WEATHER AND/OR OBSTRUCTIONS TO VISIBILITY.


NDZ001>003-009>011-017-310200-
NORTHWEST NORTH DAKOTA

CITY           SKY/WX    TMP DP  RH WIND       PRES   REMARKS
WILLISTON      CLEAR     80  51  36 E6        30.13S
MINOT          CLEAR     77  47  34 E8        30.16F
MINOT AFB      PTCLDY    76  49  38 SE9       30.15F
$$

NDZ018>021-031>035-040>046-310200-
SOUTHWEST NORTH DAKOTA

CITY           SKY/WX    TMP DP  RH WIND       PRES   REMARKS
BISMARCK       CLEAR     74  53  48 E8        30.16F
DICKINSON      PTCLDY    76  54  46 SE12      30.12F
GARRISON         N/A     73  54  51 E7        30.15F
HETTINGER ARPT CLEAR     79  63  57 E10       30.16S
$$

NDZ004>008-012>016-024-026-027-054-310200-
NORTHEAST NORTH DAKOTA

CITY           SKY/WX    TMP DP  RH WIND       PRES   REMARKS
GRAND FORKS    PTCLDY    73  54  51 NE8       30.17S
GRND FRKS AFB  CLEAR     72  54  52 E6        30.18S
DEVILS LAKE    CLEAR     73  51  46 CALM      30.21S
$$

NDZ022-023-025-028>030-036>039-047>053-310200-
SOUTHEAST NORTH DAKOTA

CITY           SKY/WX    TMP DP  RH WIND       PRES   REMARKS
FARGO          CLEAR     71  56  58 CALM      30.18S
JAMESTOWN      PTCLDY    70  57  63 SE3       30.20R
$$





USA.gov is the U.S. government's official web portal to all federal, state and local government web resources and services.